FIN1661 EFHK-LEMD

Flight info

Callsign FIN1661
Flight time N/A
Altitude 32000
Route NUNTO Y369 REKDO DCT KOSKA DCT ROXEN DCT ALASA/N0445F340 DCT SUSET DCT CIV/N0443F330 N872 MEDIL DCT KOVIN DCT DUCRA UM728 RESMI UN857 DISAK/N0448F350 DCT ARKIP DCT ARNAV DCT LMG DCT UVELI DCT OSMOB DCT ARVID T424 PPN N857 BANEV
Aircraft A321/M-SDE3FGHIRWY/LB1

Departure

Time 2026-05-06 09:12
Airport Helsinki Vantaa Airport (EFHK)

Arrival

Time N/A
Airport Adolfo Suárez Madrid–Barajas Airport (LEMD)
Time Latitude Longitude Altitude Speed Heading
2026-05-06 08:17 60.31597 24.97292 167 ft 0 kts 243°
2026-05-06 08:58 60.31600 24.97305 166 ft 3 kts 243°
2026-05-06 08:59 60.31609 24.97340 166 ft 3 kts 249°
2026-05-06 08:59 60.31614 24.97377 166 ft 3 kts 278°
2026-05-06 08:59 60.31608 24.97412 165 ft 3 kts 314°
2026-05-06 08:59 60.31598 24.97428 164 ft 1 kts 333°
2026-05-06 09:03 60.31606 24.97420 165 ft 3 kts 333°
2026-05-06 09:03 60.31628 24.97397 165 ft 5 kts 333°
2026-05-06 09:03 60.31670 24.97355 166 ft 9 kts 333°
2026-05-06 09:03 60.31738 24.97285 166 ft 13 kts 333°
2026-05-06 09:04 60.31828 24.97192 166 ft 15 kts 333°
2026-05-06 09:04 60.31924 24.97094 166 ft 15 kts 333°
2026-05-06 09:04 60.32018 24.96997 166 ft 15 kts 333°
2026-05-06 09:04 60.32111 24.96892 166 ft 15 kts 329°
2026-05-06 09:05 60.32204 24.96787 166 ft 16 kts 329°
2026-05-06 09:05 60.32296 24.96677 167 ft 15 kts 329°
2026-05-06 09:05 60.32369 24.96590 173 ft 10 kts 330°
2026-05-06 09:05 60.32441 24.96506 174 ft 15 kts 330°
2026-05-06 09:06 60.32542 24.96390 173 ft 17 kts 330°
2026-05-06 09:06 60.32646 24.96267 172 ft 18 kts 329°
2026-05-06 09:06 60.32753 24.96141 172 ft 17 kts 329°
2026-05-06 09:06 60.32855 24.96023 174 ft 16 kts 330°
2026-05-06 09:07 60.32948 24.95916 177 ft 14 kts 330°
2026-05-06 09:07 60.33024 24.95827 181 ft 11 kts 330°
2026-05-06 09:07 60.33088 24.95739 180 ft 12 kts 317°
2026-05-06 09:07 60.33149 24.95623 180 ft 12 kts 317°
2026-05-06 09:08 60.33204 24.95517 182 ft 10 kts 306°
2026-05-06 09:08 60.33207 24.95389 181 ft 11 kts 243°
2026-05-06 09:08 60.33150 24.95261 178 ft 14 kts 227°
2026-05-06 09:08 60.33106 24.95094 178 ft 14 kts 269°
2026-05-06 09:09 60.33110 24.94954 178 ft 13 kts 273°
2026-05-06 09:09 60.33112 24.94860 179 ft 12 kts 273°
2026-05-06 09:09 60.33116 24.94710 183 ft 9 kts 272°
2026-05-06 09:10 60.33118 24.94608 186 ft 7 kts 272°
2026-05-06 09:10 60.33121 24.94487 190 ft 9 kts 272°
2026-05-06 09:10 60.33108 24.94375 189 ft 8 kts 236°
2026-05-06 09:10 60.33081 24.94315 196 ft 0 kts 227°
2026-05-06 09:11 60.33080 24.94313 196 ft 1 kts 227°
2026-05-06 09:11 60.33036 24.94218 192 ft 35 kts 227°
2026-05-06 09:11 60.32712 24.93504 180 ft 102 kts 227°
2026-05-06 09:11 60.32097 24.92148 160 ft 156 kts 227°
2026-05-06 09:12 60.31290 24.90365 481 ft 176 kts 227°
2026-05-06 09:12 60.30468 24.88556 1326 ft 173 kts 234°
2026-05-06 09:12 60.29896 24.86452 1808 ft 175 kts 256°
2026-05-06 09:12 60.29776 24.84019 2303 ft 175 kts 274°
2026-05-06 09:13 60.30010 24.81626 2785 ft 175 kts 286°
2026-05-06 09:13 60.30287 24.79132 2995 ft 192 kts 274°
2026-05-06 09:13 60.30106 24.76454 3431 ft 197 kts 253°
2026-05-06 09:13 60.29584 24.73895 3996 ft 197 kts 249°
2026-05-06 09:14 60.29059 24.71312 4470 ft 202 kts 250°
2026-05-06 09:14 60.28503 24.68555 4608 ft 224 kts 250°
2026-05-06 09:14 60.27890 24.65521 4809 ft 244 kts 250°
2026-05-06 09:14 60.27235 24.62296 5317 ft 253 kts 249°
2026-05-06 09:15 60.26558 24.58985 5923 ft 258 kts 249°
2026-05-06 09:15 60.25871 24.55640 6606 ft 260 kts 249°
2026-05-06 09:15 60.25174 24.52237 7219 ft 264 kts 249°
2026-05-06 09:15 60.24471 24.48823 7857 ft 266 kts 248°
2026-05-06 09:16 60.23608 24.45498 8526 ft 269 kts 244°
2026-05-06 09:16 60.22713 24.42179 9209 ft 270 kts 244°
2026-05-06 09:16 60.21812 24.38839 9888 ft 272 kts 244°
2026-05-06 09:16 60.20900 24.35448 10288 ft 284 kts 244°
2026-05-06 09:17 60.19928 24.31823 10426 ft 304 kts 244°
2026-05-06 09:17 60.18894 24.27975 10560 ft 322 kts 244°
2026-05-06 09:17 60.17811 24.23963 10973 ft 330 kts 244°
2026-05-06 09:17 60.17083 24.21276 11363 ft 330 kts 244°
2026-05-06 09:18 60.15983 24.17222 12021 ft 331 kts 244°
2026-05-06 09:18 60.14883 24.13173 12710 ft 330 kts 245°
2026-05-06 09:18 60.13784 24.09137 13405 ft 329 kts 245°
2026-05-06 09:18 60.12328 24.03807 14235 ft 329 kts 245°
2026-05-06 09:19 60.11583 24.01089 14616 ft 329 kts 245°
2026-05-06 09:19 60.10478 23.97069 15184 ft 329 kts 245°
2026-05-06 09:19 60.09372 23.93049 15775 ft 330 kts 245°
2026-05-06 09:19 60.08262 23.89009 16313 ft 331 kts 245°
2026-05-06 09:20 60.07167 23.84948 16882 ft 331 kts 246°
2026-05-06 09:20 60.06095 23.80859 17362 ft 333 kts 246°
2026-05-06 09:20 60.05027 23.76736 17898 ft 334 kts 246°
2026-05-06 09:20 60.03955 23.72593 18412 ft 335 kts 246°
2026-05-06 09:21 60.02895 23.68508 18847 ft 337 kts 246°
2026-05-06 09:21 60.01809 23.64348 19333 ft 337 kts 245°
2026-05-06 09:21 60.00716 23.60191 19796 ft 338 kts 245°
2026-05-06 09:21 59.99616 23.56034 20260 ft 339 kts 245°
2026-05-06 09:22 59.98509 23.51859 20717 ft 340 kts 245°
2026-05-06 09:22 59.97399 23.47675 21154 ft 341 kts 245°
2026-05-06 09:22 59.96283 23.43487 21559 ft 342 kts 245°
2026-05-06 09:22 59.95160 23.39283 21985 ft 344 kts 245°
2026-05-06 09:23 59.94035 23.35073 22390 ft 345 kts 245°
2026-05-06 09:23 59.92904 23.30850 22788 ft 346 kts 245°
2026-05-06 09:23 59.91772 23.26616 23174 ft 347 kts 245°
2026-05-06 09:23 59.90636 23.22365 23557 ft 348 kts 245°
2026-05-06 09:24 59.89492 23.18095 23876 ft 349 kts 245°
2026-05-06 09:24 59.88343 23.13824 24199 ft 350 kts 245°
2026-05-06 09:24 59.87187 23.09539 24444 ft 352 kts 245°
2026-05-06 09:24 59.86026 23.05246 24747 ft 353 kts 245°
2026-05-06 09:25 59.84856 23.00941 25067 ft 354 kts 244°
2026-05-06 09:25 59.83685 22.96639 25386 ft 354 kts 245°
2026-05-06 09:25 59.82527 22.92381 25756 ft 355 kts 245°
2026-05-06 09:25 59.81353 22.88068 26090 ft 355 kts 245°
2026-05-06 09:26 59.80158 22.83703 26396 ft 355 kts 245°
2026-05-06 09:26 59.78977 22.79394 26694 ft 356 kts 245°
2026-05-06 09:26 59.77807 22.75131 26982 ft 357 kts 245°
2026-05-06 09:26 59.76620 22.70801 27269 ft 357 kts 245°
2026-05-06 09:27 59.75433 22.66465 27551 ft 358 kts 245°
2026-05-06 09:27 59.74243 22.62123 27820 ft 358 kts 245°
2026-05-06 09:27 59.73050 22.57787 28109 ft 359 kts 245°
2026-05-06 09:27 59.71846 22.53433 28385 ft 360 kts 245°
2026-05-06 09:28 59.70638 22.49085 28660 ft 361 kts 244°
2026-05-06 09:28 59.69425 22.44732 28938 ft 362 kts 244°
2026-05-06 09:28 59.68209 22.40378 29285 ft 360 kts 244°
2026-05-06 09:28 59.66998 22.36046 29691 ft 358 kts 245°
2026-05-06 09:29 59.65801 22.31755 30105 ft 355 kts 245°
2026-05-06 09:29 59.64607 22.27486 30430 ft 354 kts 245°
2026-05-06 09:29 59.63415 22.23226 30694 ft 354 kts 245°
2026-05-06 09:29 59.62225 22.18973 30927 ft 354 kts 244°
2026-05-06 09:30 59.61030 22.14726 31150 ft 354 kts 244°
2026-05-06 09:30 59.59829 22.10477 31385 ft 354 kts 244°
2026-05-06 09:30 59.58627 22.06230 31615 ft 355 kts 244°
2026-05-06 09:30 59.57425 22.01988 31837 ft 355 kts 244°
2026-05-06 09:31 59.56219 21.97737 32042 ft 356 kts 244°
2026-05-06 09:31 59.53805 21.89245 32049 ft 354 kts 244°
2026-05-06 09:32 59.51393 21.80784 32047 ft 354 kts 244°
2026-05-06 09:32 59.48986 21.72367 32051 ft 351 kts 244°
2026-05-06 09:33 59.46603 21.64078 32050 ft 350 kts 244°
2026-05-06 09:33 59.44196 21.55758 32053 ft 350 kts 244°
2026-05-06 09:34 59.41790 21.47440 32054 ft 350 kts 244°
2026-05-06 09:34 59.39381 21.39120 32055 ft 350 kts 243°
2026-05-06 09:35 59.36970 21.30827 32054 ft 350 kts 243°
2026-05-06 09:35 59.34551 21.22537 32057 ft 350 kts 243°
2026-05-06 09:36 59.32123 21.14268 32063 ft 350 kts 243°
2026-05-06 09:36 59.29694 21.06010 32021 ft 350 kts 243°
2026-05-06 09:37 59.27259 20.97760 32063 ft 350 kts 243°
2026-05-06 09:37 59.24825 20.89533 32056 ft 350 kts 243°
2026-05-06 09:38 59.22383 20.81316 32052 ft 350 kts 243°
2026-05-06 09:38 59.19932 20.73117 32059 ft 350 kts 242°
2026-05-06 09:39 59.17430 20.64986 32063 ft 350 kts 240°
2026-05-06 09:39 59.14740 20.57059 32060 ft 351 kts 239°
2026-05-06 09:40 59.11993 20.49213 32002 ft 351 kts 239°
2026-05-06 09:40 59.07884 20.37378 32046 ft 352 kts 239°
2026-05-06 09:41 59.05163 20.29536 32053 ft 352 kts 239°
2026-05-06 09:41 59.02422 20.21652 32050 ft 352 kts 239°
2026-05-06 09:42 58.99678 20.13790 32052 ft 352 kts 239°
2026-05-06 09:42 58.96936 20.05943 32091 ft 351 kts 239°
2026-05-06 09:43 58.94192 19.98114 32082 ft 351 kts 239°
2026-05-06 09:43 58.91439 19.90312 32008 ft 351 kts 238°
2026-05-06 09:44 58.88682 19.82519 32023 ft 352 kts 238°
2026-05-06 09:44 58.85909 19.74711 32028 ft 353 kts 238°
2026-05-06 09:45 58.83140 19.66945 32033 ft 353 kts 238°
2026-05-06 09:45 58.80334 19.59090 32037 ft 354 kts 238°
2026-05-06 09:46 58.77535 19.51286 32034 ft 354 kts 238°
2026-05-06 09:46 58.74731 19.43486 32039 ft 354 kts 238°
2026-05-06 09:47 58.71923 19.35705 32049 ft 354 kts 238°
2026-05-06 09:47 58.69120 19.27937 32038 ft 358 kts 237°
2026-05-06 09:48 58.66271 19.20069 32040 ft 358 kts 237°
2026-05-06 09:48 58.63411 19.12230 32083 ft 358 kts 237°
2026-05-06 09:49 58.60550 19.04412 32078 ft 357 kts 237°
2026-05-06 09:49 58.57698 18.96638 32079 ft 356 kts 237°
2026-05-06 09:50 58.54847 18.88877 32069 ft 356 kts 237°
2026-05-06 09:50 58.51990 18.81146 32065 ft 356 kts 237°
2026-05-06 09:51 58.49128 18.73420 32013 ft 356 kts 236°
2026-05-06 09:51 58.46253 18.65684 32023 ft 358 kts 236°
2026-05-06 09:52 58.43357 18.57922 32025 ft 359 kts 236°
2026-05-06 09:52 58.40452 18.50146 32032 ft 360 kts 236°
2026-05-06 09:53 58.37557 18.42419 32028 ft 360 kts 236°
2026-05-06 09:53 58.34616 18.34608 32038 ft 361 kts 236°
2026-05-06 09:54 58.31692 18.26854 32040 ft 361 kts 236°
2026-05-06 09:54 58.28765 18.19111 32009 ft 362 kts 234°
2026-05-06 09:55 58.25828 18.11384 32018 ft 364 kts 234°
2026-05-06 09:55 58.22859 18.03605 32024 ft 364 kts 234°
2026-05-06 09:56 58.19891 17.95834 32030 ft 364 kts 234°
2026-05-06 09:56 58.16913 17.88069 32035 ft 364 kts 234°
2026-05-06 09:57 58.13928 17.80327 32040 ft 364 kts 234°
2026-05-06 09:57 58.10934 17.72589 32043 ft 364 kts 234°
2026-05-06 09:58 58.07939 17.64867 32006 ft 364 kts 233°
2026-05-06 09:58 58.04937 17.57140 32014 ft 366 kts 233°
2026-05-06 09:59 58.01914 17.49387 32017 ft 367 kts 233°
2026-05-06 09:59 57.98877 17.41634 32022 ft 368 kts 233°
2026-05-06 10:00 57.95834 17.33888 32050 ft 368 kts 233°
2026-05-06 10:00 57.92790 17.26152 32052 ft 367 kts 233°
2026-05-06 10:01 57.89742 17.18450 32052 ft 367 kts 232°
2026-05-06 10:01 57.86688 17.10756 32000 ft 367 kts 232°
2026-05-06 10:02 57.83621 17.03050 32003 ft 369 kts 232°
2026-05-06 10:02 57.80556 16.95351 32011 ft 371 kts 232°
2026-05-06 10:03 57.77459 16.87591 32018 ft 372 kts 232°
2026-05-06 10:03 57.74345 16.79834 32023 ft 373 kts 232°
2026-05-06 10:04 57.71222 16.72082 32029 ft 373 kts 232°
2026-05-06 10:04 57.68098 16.64340 32028 ft 373 kts 232°
2026-05-06 10:05 57.64966 16.56621 32032 ft 373 kts 232°
2026-05-06 10:05 57.61821 16.48912 32053 ft 373 kts 231°
2026-05-06 10:06 57.58676 16.41215 32059 ft 372 kts 232°
2026-05-06 10:06 57.55539 16.33545 32054 ft 371 kts 232°
2026-05-06 10:07 57.52933 16.27203 32036 ft 371 kts 231°
2026-05-06 10:07 57.49795 16.19588 32033 ft 371 kts 231°
2026-05-06 10:08 57.46657 16.11980 32030 ft 371 kts 231°
2026-05-06 10:08 57.43515 16.04400 31982 ft 371 kts 231°
2026-05-06 10:09 57.40348 15.96784 31976 ft 373 kts 231°
2026-05-06 10:09 57.37165 15.89158 31982 ft 375 kts 231°
2026-05-06 10:10 57.33962 15.81511 31982 ft 376 kts 230°
2026-05-06 10:10 57.30751 15.73866 31987 ft 376 kts 231°
2026-05-06 10:11 57.27538 15.66230 31991 ft 376 kts 230°
2026-05-06 10:11 57.24320 15.58612 32023 ft 376 kts 231°
2026-05-06 10:12 57.21093 15.50999 31974 ft 377 kts 230°
2026-05-06 10:12 57.17876 15.43426 31966 ft 378 kts 230°
2026-05-06 10:13 57.14622 15.35786 31972 ft 379 kts 230°
2026-05-06 10:13 57.11349 15.28147 31971 ft 380 kts 230°
2026-05-06 10:14 57.08066 15.20525 31973 ft 380 kts 230°
2026-05-06 10:14 57.04783 15.12898 31977 ft 381 kts 230°
2026-05-06 10:15 57.01504 15.05284 31947 ft 381 kts 229°
2026-05-06 10:15 56.98200 14.97657 31945 ft 382 kts 229°
2026-05-06 10:16 56.94879 14.90021 31968 ft 384 kts 229°
2026-05-06 10:16 56.91545 14.82384 31964 ft 384 kts 229°
2026-05-06 10:17 56.88200 14.74736 31980 ft 385 kts 229°
2026-05-06 10:17 56.84848 14.67099 31978 ft 385 kts 229°
2026-05-06 10:18 56.81492 14.59460 31977 ft 385 kts 229°
2026-05-06 10:18 56.78129 14.51848 31941 ft 386 kts 228°
2026-05-06 10:19 56.74743 14.44215 31939 ft 388 kts 228°
2026-05-06 10:19 56.71341 14.36570 31948 ft 389 kts 228°
2026-05-06 10:20 56.67925 14.28907 31941 ft 390 kts 228°
2026-05-06 10:20 56.64507 14.21261 31947 ft 390 kts 228°
2026-05-06 10:21 56.61080 14.13620 31942 ft 390 kts 228°
2026-05-06 10:21 56.57644 14.05996 31911 ft 390 kts 227°
2026-05-06 10:22 56.54262 13.98262 31951 ft 393 kts 230°
2026-05-06 10:22 56.51098 13.90170 31928 ft 394 kts 232°
2026-05-06 10:23 56.47976 13.82078 31930 ft 395 kts 231°